Time,TemperatureF,DewpointF,PressureIn,WindDirection,WindDirectionDegrees,WindSpeedMPH,WindSpeedGustMPH,Humidity,HourlyPrecipIn,Conditions,Clouds,dailyrainin,SolarRadiationWatts/m^2,SoftwareType,DateUTC
2013-02-01 00:05:00,36.6,22.4,29.98,SW,225,3.0,6.0,56,0.00,RA,SCT,0.00,0.0,WeatherDisplay:10.37,2013-02-01 05:05:00,
2013-02-01 00:10:00,36.6,22.8,29.99,SW,217,2.0,10.0,57,0.00,BKN,SCT,0.00,0.0,WeatherDisplay:10.37,2013-02-01 05:10:00,
2013-02-01 00:15:00,36.6,22.8,29.99,SW,221,5.0,9.0,57,0.00,BKN,SCT,0.00,0.0,WeatherDisplay:10.37,2013-02-01 05:15:00,
2013-02-01 00:20:00,36.6,22.8,29.98,SW,225,2.0,7.0,57,0.00,BKN,SCT,0.00,0.0,WeatherDisplay:10.37,2013-02-01 05:20:00,
2013-02-01 00:25:00,36.6,23.2,29.98,SW,222,5.0,8.0,58,0.00,BKN,SCT,0.00,0.0,WeatherDisplay:10.37,2013-02-01 05:25:00,
2013-02-01 00:30:00,36.6,23.2,29.98,SW,217,3.0,8.0,58,0.00,BKN,SCT,0.00,0.0,WeatherDisplay:10.37,2013-02-01 05:30:00,
2013-02-01 00:40:00,36.6,23.6,29.98,SW,228,3.0,8.0,59,0.00,BKN,SCT,0.00,0.0,WeatherDisplay:10.37,2013-02-01 05:40:00,
2013-02-01 00:45:00,36.6,23.6,29.98,SW,226,5.0,9.0,59,0.00,BKN,SCT,0.00,0.0,WeatherDisplay:10.37,2013-02-01 05:45:00,
2013-02-01 00:55:00,36.6,24.0,29.98,SW,223,5.0,10.0,60,0.00,BKN,SCT,0.00,0.0,WeatherDisplay:10.37,2013-02-01 05:55:00,
2013-02-01 01:00:00,36.6,24.0,29.98,SW,218,3.0,9.0,60,0.00,BKN,SCT,0.00,0.0,WeatherDisplay:10.37,2013-02-01 06:00:00,
2013-02-01 01:05:00,36.6,24.0,29.97,SW,218,3.0,9.0,60,0.00,BKN,SCT,0.00,0.0,WeatherDisplay:10.37,2013-02-01 06:05:00,
2013-02-01 01:15:00,36.6,24.4,29.97,SW,214,3.0,6.0,61,0.00,BKN,SCT,0.00,0.0,WeatherDisplay:10.37,2013-02-01 06:15:00,
2013-02-01 01:20:00,36.6,24.4,29.97,SSW,212,3.0,7.0,61,0.00,BKN,SCT,0.00,0.0,WeatherDisplay:10.37,2013-02-01 06:20:00,
2013-02-01 01:25:00,36.6,24.4,29.97,SW,215,2.0,7.0,61,0.00,BKN,SCT,0.00,0.0,WeatherDisplay:10.37,2013-02-01 06:25:00,
2013-02-01 01:30:00,36.6,24.4,29.97,SW,219,2.0,7.0,61,0.00,BKN,SCT,0.00,0.0,WeatherDisplay:10.37,2013-02-01 06:30:00,
2013-02-01 01:35:00,36.6,24.4,29.96,SW,225,3.0,7.0,61,0.00,BKN,SCT,0.00,0.0,WeatherDisplay:10.37,2013-02-01 06:35:00,
2013-02-01 01:40:00,36.6,24.8,29.96,SW,228,2.0,9.0,62,0.00,BKN,SCT,0.00,0.0,WeatherDisplay:10.37,2013-02-01 06:40:00,
2013-02-01 01:45:00,36.5,24.7,29.95,SW,233,1.0,5.0,62,0.00,BKN,SCT,0.00,0.0,WeatherDisplay:10.37,2013-02-01 06:45:00,
2013-02-01 01:50:00,36.5,24.7,29.95,SW,232,2.0,7.0,62,0.00,BKN,SCT,0.00,0.0,WeatherDisplay:10.37,2013-02-01 06:50:00,
2013-02-01 01:55:00,36.5,24.7,29.95,SW,226,3.0,8.0,62,0.00,BKN,SCT,0.00,0.0,WeatherDisplay:10.37,2013-02-01 06:55:00,
2013-02-01 02:00:00,36.6,24.8,29.95,SW,217,3.0,8.0,62,0.00,BKN,SCT,0.00,0.0,WeatherDisplay:10.37,2013-02-01 07:00:00,
2013-02-01 02:05:00,36.7,26.0,29.94,SSW,213,5.0,8.0,65,0.00,BKN,SCT,0.00,0.0,WeatherDisplay:10.37,2013-02-01 07:05:00,
2013-02-01 02:10:00,36.9,25.1,29.94,SW,221,6.0,15.0,62,0.00,BKN,SCT,0.00,0.0,WeatherDisplay:10.37,2013-02-01 07:10:00,
2013-02-01 02:15:00,37.1,24.9,29.93,SW,226,3.0,10.0,61,0.00,BKN,SCT,0.00,0.0,WeatherDisplay:10.37,2013-02-01 07:15:00,
2013-02-01 02:20:00,37.2,25.0,29.93,SW,215,5.0,7.0,61,0.00,BKN,SCT,0.00,0.0,WeatherDisplay:10.37,2013-02-01 07:20:00,
2013-02-01 02:25:00,37.4,25.2,29.93,SSW,213,5.0,12.0,61,0.00,BKN,SCT,0.00,0.0,WeatherDisplay:10.37,2013-02-01 07:25:00,
2013-02-01 02:30:00,37.6,25.4,29.93,SW,217,8.0,13.0,61,0.00,BKN,SCT,0.00,0.0,WeatherDisplay:10.37,2013-02-01 07:30:00,
2013-02-01 02:35:00,37.9,25.6,29.92,SW,214,5.0,9.0,61,0.00,BKN,SCT,0.00,0.0,WeatherDisplay:10.37,2013-02-01 07:35:00,
2013-02-01 02:40:00,38.1,25.4,29.92,SW,216,5.0,10.0,60,0.00,BKN,SCT,0.00,0.0,WeatherDisplay:10.37,2013-02-01 07:40:00,
2013-02-01 02:45:00,38.4,25.7,29.92,SW,222,5.0,14.0,60,0.00,BKN,SCT,0.00,0.0,WeatherDisplay:10.37,2013-02-01 07:45:00,
2013-02-01 02:50:00,38.6,25.9,29.92,SW,224,7.0,10.0,60,0.00,BKN,SCT,0.00,0.0,WeatherDisplay:10.37,2013-02-01 07:50:00,
2013-02-01 02:55:00,38.8,25.7,29.92,SW,216,7.0,14.0,59,0.00,BKN,SCT,0.00,0.0,WeatherDisplay:10.37,2013-02-01 07:55:00,
2013-02-01 03:00:00,39.1,25.9,29.91,SW,214,8.0,17.0,59,0.00,BKN,SCT,0.00,0.0,WeatherDisplay:10.37,2013-02-01 08:00:00,
2013-02-01 03:05:00,39.3,26.2,29.91,SW,222,8.0,13.0,59,0.00,BKN,SCT,0.00,0.0,WeatherDisplay:10.37,2013-02-01 08:05:00,
2013-02-01 03:10:00,39.5,26.3,29.91,SW,228,7.0,14.0,59,0.00,BKN,SCT,0.00,0.0,WeatherDisplay:10.37,2013-02-01 08:10:00,
2013-02-01 03:15:00,39.6,26.1,29.91,SW,223,8.0,18.0,58,0.00,BKN,SCT,0.00,0.0,WeatherDisplay:10.37,2013-02-01 08:15:00,
2013-02-01 03:20:00,39.8,26.2,29.90,SW,222,9.0,15.0,58,0.00,BKN,SCT,0.00,0.0,WeatherDisplay:10.37,2013-02-01 08:20:00,
2013-02-01 03:25:00,39.9,26.3,29.90,SW,225,5.0,17.0,58,0.00,BKN,SCT,0.00,0.0,WeatherDisplay:10.37,2013-02-01 08:25:00,
2013-02-01 03:30:00,40.0,26.4,29.90,SW,226,5.0,9.0,58,0.00,BKN,SCT,0.00,0.0,WeatherDisplay:10.37,2013-02-01 08:30:00,
2013-02-01 03:35:00,40.0,26.4,29.89,SW,226,8.0,13.0,58,0.00,BKN,SCT,0.00,0.0,WeatherDisplay:10.37,2013-02-01 08:35:00,
2013-02-01 03:45:00,39.9,26.3,29.90,SW,225,9.0,13.0,58,0.00,BKN,SCT,0.00,0.0,WeatherDisplay:10.37,2013-02-01 08:45:00,
2013-02-01 03:50:00,39.9,26.3,29.89,SW,227,7.0,14.0,58,0.00,BKN,SCT,0.00,0.0,WeatherDisplay:10.37,2013-02-01 08:50:00,
2013-02-01 03:55:00,39.9,26.3,29.89,SW,223,7.0,14.0,58,0.00,BKN,SCT,0.00,0.0,WeatherDisplay:10.37,2013-02-01 08:55:00,
2013-02-01 04:00:00,39.9,26.3,29.89,SW,224,7.0,16.0,58,0.00,BKN,SCT,0.00,0.0,WeatherDisplay:10.37,2013-02-01 09:00:00,
2013-02-01 04:05:00,40.0,26.4,29.89,SW,229,9.0,20.0,58,0.00,BKN,SCT,0.00,0.0,WeatherDisplay:10.37,2013-02-01 09:05:00,
2013-02-01 04:10:00,40.0,26.8,29.89,SW,231,6.0,17.0,59,0.00,BKN,SCT,0.00,0.0,WeatherDisplay:10.37,2013-02-01 09:10:00,
2013-02-01 04:15:00,40.0,26.9,29.89,SW,231,9.0,15.0,59,0.00,BKN,SCT,0.00,0.0,WeatherDisplay:10.37,2013-02-01 09:15:00,
2013-02-01 04:20:00,40.1,26.5,29.90,SW,230,8.0,14.0,58,0.00,BKN,SCT,0.00,0.0,WeatherDisplay:10.37,2013-02-01 09:20:00,
2013-02-01 04:25:00,40.1,26.5,29.90,WSW,238,8.0,13.0,58,0.00,BKN,SCT,0.00,0.0,WeatherDisplay:10.37,2013-02-01 09:25:00,
2013-02-01 04:30:00,40.1,26.9,29.90,SW,235,9.0,16.0,59,0.00,BKN,SCT,0.00,0.0,WeatherDisplay:10.37,2013-02-01 09:30:00,
2013-02-01 04:35:00,40.1,26.9,29.90,SW,234,7.0,14.0,59,0.00,BKN,SCT,0.00,0.0,WeatherDisplay:10.37,2013-02-01 09:35:00,
2013-02-01 04:40:00,40.2,27.0,29.90,SW,234,7.0,17.0,59,0.00,BKN,SCT,0.00,0.0,WeatherDisplay:10.37,2013-02-01 09:40:00,
2013-02-01 04:45:00,40.2,27.0,29.91,WSW,237,7.0,14.0,59,0.00,BKN,SCT,0.00,0.0,WeatherDisplay:10.37,2013-02-01 09:45:00,
2013-02-01 04:50:00,40.1,26.9,29.91,WSW,243,8.0,15.0,59,0.00,BKN,SCT,0.00,0.0,WeatherDisplay:10.37,2013-02-01 09:50:00,
2013-02-01 04:55:00,40.1,26.9,29.91,WSW,243,9.0,15.0,59,0.00,BKN,SCT,0.00,0.0,WeatherDisplay:10.37,2013-02-01 09:55:00,
2013-02-01 05:00:00,40.1,27.3,29.91,SW,234,9.0,15.0,60,0.00,BKN,SCT,0.00,0.0,WeatherDisplay:10.37,2013-02-01 10:00:00,
2013-02-01 05:05:00,40.0,27.2,29.91,SW,229,7.0,15.0,60,0.00,BKN,SCT,0.00,0.0,WeatherDisplay:10.37,2013-02-01 10:05:00,
2013-02-01 05:10:00,39.9,27.1,29.92,SW,233,7.0,15.0,60,0.00,BKN,SCT,0.00,0.0,WeatherDisplay:10.37,2013-02-01 10:10:00,
2013-02-01 05:15:00,39.8,27.0,29.92,SW,234,6.0,17.0,60,0.00,BKN,SCT,0.00,0.0,WeatherDisplay:10.37,2013-02-01 10:15:00,
2013-02-01 05:20:00,39.7,26.9,29.93,WSW,237,8.0,14.0,60,0.00,BKN,SCT,0.00,0.0,WeatherDisplay:10.37,2013-02-01 10:20:00,
2013-02-01 05:25:00,39.6,27.2,29.93,WSW,242,5.0,12.0,61,0.00,BKN,SCT,0.00,0.0,WeatherDisplay:10.37,2013-02-01 10:25:00,
2013-02-01 05:30:00,39.6,27.2,29.94,WSW,243,8.0,13.0,61,0.00,BKN,SCT,0.00,0.0,WeatherDisplay:10.37,2013-02-01 10:30:00,
2013-02-01 05:35:00,39.5,27.2,29.94,WSW,246,7.0,12.0,61,0.00,BKN,SCT,0.00,0.0,WeatherDisplay:10.37,2013-02-01 10:35:00,
2013-02-01 05:40:00,39.5,27.2,29.95,WSW,248,6.0,9.0,61,0.00,BKN,SCT,0.00,0.0,WeatherDisplay:10.37,2013-02-01 10:40:00,
2013-02-01 05:45:00,39.5,27.5,29.95,WSW,249,2.0,10.0,62,0.00,BKN,SCT,0.00,0.0,WeatherDisplay:10.37,2013-02-01 10:45:00,
2013-02-01 05:50:00,39.4,27.5,29.96,WSW,255,2.0,7.0,62,0.00,BKN,SCT,0.00,0.0,WeatherDisplay:10.37,2013-02-01 10:50:00,
2013-02-01 05:55:00,39.3,27.4,29.96,West,281,2.0,7.0,62,0.00,BKN,SCT,0.00,0.0,WeatherDisplay:10.37,2013-02-01 10:55:00,
2013-02-01 06:00:00,39.2,27.7,29.98,NW,304,1.0,7.0,63,0.00,BKN,SCT,0.00,0.0,WeatherDisplay:10.37,2013-02-01 11:00:00,
2013-02-01 06:05:00,39.0,27.5,29.98,NW,305,2.0,5.0,63,0.00,BKN,SCT,0.00,0.0,WeatherDisplay:10.37,2013-02-01 11:05:00,
2013-02-01 06:10:00,38.8,27.3,29.98,NW,314,5.0,7.0,63,0.00,BKN,SCT,0.00,0.0,WeatherDisplay:10.37,2013-02-01 11:10:00,
2013-02-01 06:15:00,38.5,27.0,30.00,NW,318,9.0,16.0,63,0.00,BKN,SCT,0.00,0.0,WeatherDisplay:10.37,2013-02-01 11:15:00,
2013-02-01 06:20:00,38.3,26.8,30.00,NW,309,7.0,13.0,63,0.00,BKN,SCT,0.00,0.0,WeatherDisplay:10.37,2013-02-01 11:20:00,
2013-02-01 06:25:00,38.1,25.8,30.01,WNW,299,14.0,22.0,61,0.00,BKN,SCT,0.00,0.0,WeatherDisplay:10.37,2013-02-01 11:25:00,
2013-02-01 06:30:00,37.7,24.7,30.02,WNW,303,9.0,18.0,59,0.00,BKN,SCT,0.00,0.0,WeatherDisplay:10.37,2013-02-01 11:30:00,
2013-02-01 06:35:00,37.3,23.9,30.02,NW,305,8.0,20.0,58,0.00,BKN,SCT,0.00,0.0,WeatherDisplay:10.37,2013-02-01 11:35:00,
2013-02-01 06:40:00,36.8,23.4,30.03,NW,314,12.0,23.0,58,0.00,BKN,SCT,0.00,0.0,WeatherDisplay:10.37,2013-02-01 11:40:00,
2013-02-01 06:45:00,36.3,23.0,30.04,NW,308,9.0,18.0,58,0.00,BKN,SCT,0.00,0.0,WeatherDisplay:10.37,2013-02-01 11:45:00,
2013-02-01 06:50:00,35.9,22.1,30.05,NW,308,10.0,20.0,57,0.00,BKN,SCT,0.00,0.0,WeatherDisplay:10.37,2013-02-01 11:50:00,
2013-02-01 06:55:00,35.5,21.7,30.06,WNW,303,7.0,14.0,57,0.00,BKN,SCT,0.00,0.0,WeatherDisplay:10.37,2013-02-01 11:55:00,
2013-02-01 07:00:00,35.1,21.4,30.06,WNW,295,5.0,15.0,57,0.00,BKN,SCT,0.00,0.0,WeatherDisplay:10.37,2013-02-01 12:00:00,
2013-02-01 07:05:00,34.5,20.4,30.07,WNW,293,6.0,16.0,56,0.00,BKN,SCT,0.00,0.0,WeatherDisplay:10.37,2013-02-01 12:05:00,
2013-02-01 07:10:00,34.2,19.2,30.08,WNW,300,10.0,21.0,54,0.00,BKN,SCT,0.00,0.0,WeatherDisplay:10.37,2013-02-01 12:10:00,
2013-02-01 07:15:00,33.7,17.0,30.08,WNW,299,10.0,23.0,50,0.00,BKN,SCT,0.00,0.0,WeatherDisplay:10.37,2013-02-01 12:15:00,
2013-02-01 07:20:00,33.4,15.3,30.09,WNW,294,13.0,21.0,47,0.00,BKN,SCT,0.00,0.0,WeatherDisplay:10.37,2013-02-01 12:20:00,
2013-02-01 07:25:00,33.1,13.6,30.10,WNW,289,9.0,17.0,44,0.00,BKN,SCT,0.00,5.0,WeatherDisplay:10.37,2013-02-01 12:25:00,
2013-02-01 07:30:00,32.8,11.7,30.11,WNW,285,10.0,20.0,41,0.00,BKN,SCT,0.00,7.0,WeatherDisplay:10.37,2013-02-01 12:30:00,
2013-02-01 07:35:00,32.6,10.3,30.11,WNW,283,10.0,17.0,39,0.00,BKN,SCT,0.00,9.0,WeatherDisplay:10.37,2013-02-01 12:35:00,
2013-02-01 07:40:00,32.4,9.6,30.12,WNW,286,7.0,20.0,38,0.00,BKN,SCT,0.00,14.0,WeatherDisplay:10.37,2013-02-01 12:40:00,
2013-02-01 07:45:00,32.2,9.4,30.13,WNW,284,7.0,16.0,38,0.00,BKN,SCT,0.00,46.0,WeatherDisplay:10.37,2013-02-01 12:45:00,
2013-02-01 07:50:00,32.0,9.2,30.13,WNW,288,7.0,18.0,38,0.00,CLR,SCT,0.00,65.0,WeatherDisplay:10.37,2013-02-01 12:50:00,
2013-02-01 07:55:00,32.0,8.6,30.14,WNW,284,6.0,17.0,37,0.00,CLR,SCT,0.00,81.0,WeatherDisplay:10.37,2013-02-01 12:55:00,
2013-02-01 08:00:00,31.9,8.5,30.14,WNW,286,8.0,17.0,37,0.00,CLR,SCT,0.00,102.0,WeatherDisplay:10.37,2013-02-01 13:00:00,
2013-02-01 08:05:00,31.8,9.0,30.15,WNW,293,5.0,15.0,38,0.00,CLR,SCT,0.00,120.0,WeatherDisplay:10.37,2013-02-01 13:05:00,
2013-02-01 08:10:00,31.6,8.3,30.15,WNW,297,15.0,27.0,37,0.00,CLR,SCT,0.00,134.0,WeatherDisplay:10.37,2013-02-01 13:10:00,
2013-02-01 08:15:00,31.5,8.2,30.16,WNW,283,8.0,20.0,37,0.00,CLR,SCT,0.00,149.0,WeatherDisplay:10.37,2013-02-01 13:15:00,
2013-02-01 08:20:00,31.4,8.1,30.17,WNW,287,12.0,21.0,37,0.00,CLR,SCT,0.00,163.0,WeatherDisplay:10.37,2013-02-01 13:20:00,
2013-02-01 08:25:00,31.2,8.5,30.17,WNW,300,8.0,17.0,38,0.00,CLR,SCT,0.00,178.0,WeatherDisplay:10.37,2013-02-01 13:25:00,
2013-02-01 08:30:00,31.1,9.0,30.18,WNW,298,8.0,16.0,39,0.00,CLR,SCT,0.00,193.0,WeatherDisplay:10.37,2013-02-01 13:30:00,
2013-02-01 08:35:00,31.0,8.9,30.18,WNW,288,13.0,26.0,39,0.00,BKN,SCT,0.00,211.0,WeatherDisplay:10.37,2013-02-01 13:35:00,
2013-02-01 08:40:00,30.8,9.3,30.18,WNW,290,13.0,24.0,40,0.00,CLR,SCT,0.00,227.0,WeatherDisplay:10.37,2013-02-01 13:40:00,
2013-02-01 08:45:00,30.6,9.1,30.19,WNW,291,13.0,18.0,40,0.00,CLR,SCT,0.00,243.0,WeatherDisplay:10.37,2013-02-01 13:45:00,
2013-02-01 08:50:00,30.6,9.1,30.19,WNW,290,8.0,18.0,40,0.00,CLR,SCT,0.00,258.0,WeatherDisplay:10.37,2013-02-01 13:50:00,
2013-02-01 08:55:00,30.6,9.7,30.20,WNW,298,9.0,20.0,41,0.00,CLR,SCT,0.00,272.0,WeatherDisplay:10.37,2013-02-01 13:55:00,
2013-02-01 09:00:00,30.6,9.7,30.20,WNW,300,8.0,20.0,41,0.00,CLR,SCT,0.00,288.0,WeatherDisplay:10.37,2013-02-01 14:00:00,
2013-02-01 09:05:00,30.7,9.8,30.20,WNW,298,10.0,16.0,41,0.00,CLR,SCT,0.00,306.0,WeatherDisplay:10.37,2013-02-01 14:05:00,
2013-02-01 09:10:00,30.8,10.4,30.20,WNW,301,5.0,15.0,42,0.00,CLR,SCT,0.00,322.0,WeatherDisplay:10.37,2013-02-01 14:10:00,
2013-02-01 09:15:00,31.0,10.6,30.21,WNW,284,7.0,18.0,42,0.00,CLR,SCT,0.00,338.0,WeatherDisplay:10.37,2013-02-01 14:15:00,
2013-02-01 09:20:00,31.1,10.6,30.21,West,270,9.0,17.0,42,0.00,CLR,SCT,0.00,355.0,WeatherDisplay:10.37,2013-02-01 14:20:00,
2013-02-01 09:25:00,31.0,10.6,30.21,West,269,8.0,17.0,42,0.00,CLR,SCT,0.00,371.0,WeatherDisplay:10.37,2013-02-01 14:25:00,
2013-02-01 09:30:00,31.1,11.7,30.21,West,272,8.0,20.0,44,0.00,CLR,SCT,0.00,385.0,WeatherDisplay:10.37,2013-02-01 14:30:00,
2013-02-01 09:35:00,31.2,11.8,30.21,West,274,6.0,20.0,44,0.00,CLR,SCT,0.00,399.0,WeatherDisplay:10.37,2013-02-01 14:35:00,
2013-02-01 09:40:00,31.4,12.0,30.21,West,271,13.0,23.0,44,0.00,CLR,SCT,0.00,415.0,WeatherDisplay:10.37,2013-02-01 14:40:00,
2013-02-01 09:45:00,31.5,12.1,30.21,West,270,8.0,18.0,44,0.00,CLR,SCT,0.00,429.0,WeatherDisplay:10.37,2013-02-01 14:45:00,
2013-02-01 09:50:00,31.5,11.5,30.22,WNW,284,9.0,14.0,43,0.00,CLR,SCT,0.00,441.0,WeatherDisplay:10.37,2013-02-01 14:50:00,
2013-02-01 09:55:00,31.5,11.0,30.22,West,280,13.0,20.0,42,0.00,CLR,SCT,0.00,457.0,WeatherDisplay:10.37,2013-02-01 14:55:00,
2013-02-01 10:00:00,31.3,11.4,30.23,West,269,12.0,18.0,43,0.00,CLR,SCT,0.00,473.0,WeatherDisplay:10.37,2013-02-01 15:00:00,
2013-02-01 10:05:00,31.1,10.7,30.23,West,267,12.0,21.0,42,0.00,CLR,SCT,0.00,485.0,WeatherDisplay:10.37,2013-02-01 15:05:00,
2013-02-01 10:10:00,31.2,11.8,30.23,West,268,7.0,18.0,44,0.00,CLR,SCT,0.00,496.0,WeatherDisplay:10.37,2013-02-01 15:10:00,
2013-02-01 10:15:00,31.3,11.9,30.24,West,267,8.0,18.0,44,0.00,CLR,SCT,0.00,508.0,WeatherDisplay:10.37,2013-02-01 15:15:00,
2013-02-01 10:20:00,31.5,12.1,30.24,West,269,8.0,16.0,44,0.00,CLR,SCT,0.00,522.0,WeatherDisplay:10.37,2013-02-01 15:20:00,
2013-02-01 10:25:00,31.7,12.2,30.25,West,274,8.0,17.0,44,0.00,CLR,SCT,0.00,534.0,WeatherDisplay:10.37,2013-02-01 15:25:00,
2013-02-01 10:30:00,31.9,11.9,30.25,West,278,8.0,15.0,43,0.00,CLR,SCT,0.00,547.0,WeatherDisplay:10.37,2013-02-01 15:30:00,
2013-02-01 10:35:00,32.2,12.7,30.25,West,279,6.0,13.0,44,0.00,CLR,SCT,0.00,557.0,WeatherDisplay:10.37,2013-02-01 15:35:00,
2013-02-01 10:40:00,32.3,12.3,30.26,West,268,9.0,15.0,43,0.00,CLR,SCT,0.00,566.0,WeatherDisplay:10.37,2013-02-01 15:40:00,
2013-02-01 10:45:00,32.3,11.7,30.26,West,259,7.0,22.0,42,0.00,CLR,SCT,0.00,578.0,WeatherDisplay:10.37,2013-02-01 15:45:00,
2013-02-01 10:50:00,32.4,12.4,30.26,West,263,10.0,18.0,43,0.00,CLR,SCT,0.00,587.0,WeatherDisplay:10.37,2013-02-01 15:50:00,
2013-02-01 10:55:00,32.3,11.2,30.26,West,269,5.0,16.0,41,0.00,CLR,SCT,0.00,598.0,WeatherDisplay:10.37,2013-02-01 15:55:00,
2013-02-01 11:05:00,32.7,12.1,30.27,West,274,9.0,12.0,42,0.00,CLR,SCT,0.00,617.0,WeatherDisplay:10.37,2013-02-01 16:05:00,
2013-02-01 11:10:00,32.8,12.2,30.27,West,274,7.0,15.0,42,0.00,CLR,SCT,0.00,626.0,WeatherDisplay:10.37,2013-02-01 16:10:00,
2013-02-01 11:15:00,32.9,12.3,30.28,West,270,8.0,17.0,42,0.00,CLR,SCT,0.00,635.0,WeatherDisplay:10.37,2013-02-01 16:15:00,
2013-02-01 11:20:00,32.9,11.7,30.27,West,279,8.0,13.0,41,0.00,CLR,SCT,0.00,642.0,WeatherDisplay:10.37,2013-02-01 16:20:00,
2013-02-01 11:25:00,32.9,12.3,30.27,West,274,6.0,14.0,42,0.00,CLR,SCT,0.00,650.0,WeatherDisplay:10.37,2013-02-01 16:25:00,
2013-02-01 11:30:00,33.1,11.4,30.27,West,269,3.0,12.0,40,0.00,CLR,SCT,0.00,657.0,WeatherDisplay:10.37,2013-02-01 16:30:00,
2013-02-01 11:35:00,33.4,12.2,30.27,West,277,7.0,12.0,41,0.00,CLR,SCT,0.00,664.0,WeatherDisplay:10.37,2013-02-01 16:35:00,
2013-02-01 11:40:00,33.5,11.2,30.28,WNW,299,8.0,14.0,39,0.00,CLR,SCT,0.00,670.0,WeatherDisplay:10.37,2013-02-01 16:40:00,
2013-02-01 11:45:00,33.6,12.4,30.28,WNW,302,7.0,13.0,41,0.00,CLR,SCT,0.00,675.0,WeatherDisplay:10.37,2013-02-01 16:45:00,
2013-02-01 11:50:00,33.8,11.4,30.28,WNW,292,7.0,15.0,39,0.00,CLR,SCT,0.00,680.0,WeatherDisplay:10.37,2013-02-01 16:50:00,
2013-02-01 11:55:00,33.9,11.5,30.28,West,279,9.0,20.0,39,0.00,CLR,SCT,0.00,686.0,WeatherDisplay:10.37,2013-02-01 16:55:00,
2013-02-01 12:00:00,33.9,10.9,30.28,West,278,9.0,15.0,38,0.00,CLR,SCT,0.00,691.0,WeatherDisplay:10.37,2013-02-01 17:00:00,
2013-02-01 12:05:00,33.8,11.4,30.28,West,280,6.0,14.0,39,0.00,CLR,SCT,0.00,694.0,WeatherDisplay:10.37,2013-02-01 17:05:00,
2013-02-01 12:10:00,33.8,10.2,30.28,WNW,284,9.0,15.0,37,0.00,CLR,SCT,0.00,700.0,WeatherDisplay:10.37,2013-02-01 17:10:00,
2013-02-01 12:15:00,33.8,10.8,30.28,WNW,290,8.0,14.0,38,0.00,CLR,SCT,0.00,700.0,WeatherDisplay:10.37,2013-02-01 17:15:00,
2013-02-01 12:20:00,33.8,10.2,30.28,West,279,8.0,13.0,37,0.00,CLR,SCT,0.00,705.0,WeatherDisplay:10.37,2013-02-01 17:20:00,
2013-02-01 12:25:00,33.9,10.9,30.28,West,271,9.0,16.0,38,0.00,CLR,SCT,0.00,708.0,WeatherDisplay:10.37,2013-02-01 17:25:00,
2013-02-01 12:30:00,33.9,9.7,30.28,West,273,7.0,12.0,36,0.00,CLR,SCT,0.00,708.0,WeatherDisplay:10.37,2013-02-01 17:30:00,
2013-02-01 12:35:00,34.1,11.1,30.27,West,261,8.0,13.0,38,0.00,CLR,SCT,0.00,707.0,WeatherDisplay:10.37,2013-02-01 17:35:00,
2013-02-01 12:40:00,34.3,10.1,30.27,West,275,6.0,13.0,36,0.00,CLR,SCT,0.00,708.0,WeatherDisplay:10.37,2013-02-01 17:40:00,
2013-02-01 12:45:00,34.4,10.8,30.27,West,278,5.0,13.0,37,0.00,CLR,SCT,0.00,708.0,WeatherDisplay:10.37,2013-02-01 17:45:00,
2013-02-01 12:50:00,34.4,10.2,30.28,West,267,7.0,13.0,36,0.00,CLR,SCT,0.00,708.0,WeatherDisplay:10.37,2013-02-01 17:50:00,
2013-02-01 12:55:00,34.4,12.0,30.28,West,265,6.0,10.0,39,0.00,CLR,SCT,0.00,708.0,WeatherDisplay:10.37,2013-02-01 17:55:00,
2013-02-01 13:00:00,34.7,10.4,30.28,West,275,6.0,14.0,36,0.00,CLR,SCT,0.00,707.0,WeatherDisplay:10.37,2013-02-01 18:00:00,
2013-02-01 13:05:00,34.9,9.9,30.27,West,269,8.0,16.0,35,0.00,CLR,SCT,0.00,705.0,WeatherDisplay:10.37,2013-02-01 18:05:00,
2013-02-01 13:10:00,34.8,9.2,30.27,West,259,9.0,15.0,34,0.00,CLR,SCT,0.00,703.0,WeatherDisplay:10.37,2013-02-01 18:10:00,
2013-02-01 13:15:00,34.7,9.8,30.27,West,273,6.0,16.0,35,0.00,CLR,SCT,0.00,698.0,WeatherDisplay:10.37,2013-02-01 18:15:00,
2013-02-01 13:20:00,34.7,9.1,30.27,West,280,8.0,14.0,34,0.00,CLR,SCT,0.00,696.0,WeatherDisplay:10.37,2013-02-01 18:20:00,
2013-02-01 13:25:00,35.0,11.3,30.27,West,276,5.0,12.0,37,0.00,CLR,SCT,0.00,691.0,WeatherDisplay:10.37,2013-02-01 18:25:00,
2013-02-01 13:30:00,35.3,10.3,30.27,WNW,289,7.0,13.0,35,0.00,CLR,SCT,0.00,691.0,WeatherDisplay:10.37,2013-02-01 18:30:00,
2013-02-01 13:35:00,35.3,9.7,30.27,WNW,283,7.0,13.0,34,0.00,CLR,SCT,0.00,686.0,WeatherDisplay:10.37,2013-02-01 18:35:00,
2013-02-01 13:40:00,35.3,9.7,30.28,West,279,8.0,16.0,34,0.00,CLR,SCT,0.00,680.0,WeatherDisplay:10.37,2013-02-01 18:40:00,
2013-02-01 13:45:00,35.1,8.8,30.28,West,281,5.0,10.0,33,0.00,CLR,SCT,0.00,673.0,WeatherDisplay:10.37,2013-02-01 18:45:00,
2013-02-01 13:50:00,35.0,8.7,30.28,WNW,297,6.0,13.0,33,0.00,CLR,SCT,0.00,670.0,WeatherDisplay:10.37,2013-02-01 18:50:00,
2013-02-01 13:55:00,35.2,10.3,30.28,WNW,303,2.0,10.0,35,0.00,CLR,SCT,0.00,663.0,WeatherDisplay:10.37,2013-02-01 18:55:00,
2013-02-01 14:00:00,35.7,10.1,30.28,West,270,7.0,14.0,34,0.00,CLR,SCT,0.00,656.0,WeatherDisplay:10.37,2013-02-01 19:00:00,
2013-02-01 14:05:00,36.1,10.4,30.28,West,272,6.0,12.0,34,0.00,CLR,SCT,0.00,650.0,WeatherDisplay:10.37,2013-02-01 19:05:00,
2013-02-01 14:10:00,36.3,9.2,30.28,WNW,293,6.0,13.0,32,0.00,CLR,SCT,0.00,645.0,WeatherDisplay:10.37,2013-02-01 19:10:00,
2013-02-01 14:15:00,36.3,9.2,30.28,WNW,284,8.0,17.0,32,0.00,CLR,SCT,0.00,638.0,WeatherDisplay:10.37,2013-02-01 19:15:00,
2013-02-01 14:20:00,36.2,9.1,30.29,West,278,9.0,17.0,32,0.00,CLR,SCT,0.00,628.0,WeatherDisplay:10.37,2013-02-01 19:20:00,
2013-02-01 14:25:00,36.1,9.7,30.28,WNW,283,5.0,10.0,33,0.00,CLR,SCT,0.00,619.0,WeatherDisplay:10.37,2013-02-01 19:25:00,
2013-02-01 14:30:00,36.3,9.2,30.28,WNW,283,5.0,17.0,32,0.00,CLR,SCT,0.00,610.0,WeatherDisplay:10.37,2013-02-01 19:30:00,
2013-02-01 14:35:00,36.5,9.4,30.28,WNW,282,9.0,16.0,32,0.00,CLR,SCT,0.00,599.0,WeatherDisplay:10.37,2013-02-01 19:35:00,
2013-02-01 14:40:00,36.5,8.7,30.28,West,280,6.0,13.0,31,0.00,CLR,SCT,0.00,591.0,WeatherDisplay:10.37,2013-02-01 19:40:00,
2013-02-01 14:45:00,36.2,7.7,30.28,WNW,294,7.0,12.0,30,0.00,CLR,SCT,0.00,582.0,WeatherDisplay:10.37,2013-02-01 19:45:00,
2013-02-01 14:50:00,36.1,7.6,30.28,WNW,295,5.0,12.0,30,0.00,CLR,SCT,0.00,570.0,WeatherDisplay:10.37,2013-02-01 19:50:00,
2013-02-01 14:55:00,36.0,6.8,30.28,WNW,288,8.0,14.0,29,0.00,CLR,SCT,0.00,557.0,WeatherDisplay:10.37,2013-02-01 19:55:00,
2013-02-01 15:00:00,36.2,7.7,30.28,West,278,7.0,12.0,30,0.00,CLR,SCT,0.00,547.0,WeatherDisplay:10.37,2013-02-01 20:00:00,
2013-02-01 15:05:00,36.3,7.8,30.28,West,260,9.0,14.0,30,0.00,CLR,SCT,0.00,534.0,WeatherDisplay:10.37,2013-02-01 20:05:00,
2013-02-01 15:10:00,36.3,7.8,30.28,West,267,10.0,16.0,30,0.00,CLR,SCT,0.00,524.0,WeatherDisplay:10.37,2013-02-01 20:10:00,
2013-02-01 15:15:00,36.2,6.9,30.29,West,267,9.0,18.0,29,0.00,CLR,SCT,0.00,510.0,WeatherDisplay:10.37,2013-02-01 20:15:00,
2013-02-01 15:20:00,36.2,6.9,30.29,West,264,7.0,15.0,29,0.00,CLR,SCT,0.00,497.0,WeatherDisplay:10.37,2013-02-01 20:20:00,
2013-02-01 15:25:00,36.2,7.7,30.29,West,265,9.0,13.0,30,0.00,CLR,SCT,0.00,483.0,WeatherDisplay:10.37,2013-02-01 20:25:00,
2013-02-01 15:30:00,36.4,7.9,30.29,WNW,285,8.0,14.0,30,0.00,CLR,SCT,0.00,469.0,WeatherDisplay:10.37,2013-02-01 20:30:00,
2013-02-01 15:35:00,36.4,7.9,30.28,WNW,297,3.0,10.0,30,0.00,CLR,SCT,0.00,454.0,WeatherDisplay:10.37,2013-02-01 20:35:00,
2013-02-01 15:40:00,36.6,7.3,30.28,West,275,5.0,12.0,29,0.00,CLR,SCT,0.00,441.0,WeatherDisplay:10.37,2013-02-01 20:40:00,
2013-02-01 15:45:00,36.7,8.9,30.29,WNW,282,5.0,15.0,31,0.00,CLR,SCT,0.00,429.0,WeatherDisplay:10.37,2013-02-01 20:45:00,
2013-02-01 15:50:00,36.8,8.2,30.29,West,280,8.0,12.0,30,0.00,CLR,SCT,0.00,415.0,WeatherDisplay:10.37,2013-02-01 20:50:00,
2013-02-01 15:55:00,36.7,7.4,30.29,West,260,5.0,13.0,29,0.00,CLR,SCT,0.00,401.0,WeatherDisplay:10.37,2013-02-01 20:55:00,
2013-02-01 16:00:00,36.7,8.1,30.29,WSW,256,6.0,9.0,30,0.00,CLR,SCT,0.00,385.0,WeatherDisplay:10.37,2013-02-01 21:00:00,
2013-02-01 16:05:00,36.7,8.1,30.29,WNW,283,9.0,14.0,30,0.00,CLR,SCT,0.00,369.0,WeatherDisplay:10.37,2013-02-01 21:05:00,
2013-02-01 16:10:00,36.7,7.4,30.29,West,272,6.0,13.0,29,0.00,CLR,SCT,0.00,353.0,WeatherDisplay:10.37,2013-02-01 21:10:00,
2013-02-01 16:15:00,36.7,7.4,30.29,West,260,3.0,7.0,29,0.00,CLR,SCT,0.00,338.0,WeatherDisplay:10.37,2013-02-01 21:15:00,
2013-02-01 16:20:00,36.6,8.0,30.29,WNW,285,6.0,13.0,30,0.00,FEW,SCT,0.00,323.0,WeatherDisplay:10.37,2013-02-01 21:20:00,
2013-02-01 16:25:00,36.5,8.0,30.29,WNW,297,5.0,9.0,30,0.00,FEW,SCT,0.00,308.0,WeatherDisplay:10.37,2013-02-01 21:25:00,
2013-02-01 16:30:00,36.4,8.6,30.29,WNW,295,3.0,12.0,31,0.00,FEW,SCT,0.00,290.0,WeatherDisplay:10.37,2013-02-01 21:30:00,
2013-02-01 16:35:00,36.3,7.8,30.30,West,277,6.0,12.0,30,0.00,FEW,SCT,0.00,272.0,WeatherDisplay:10.37,2013-02-01 21:35:00,
2013-02-01 16:40:00,36.2,9.1,30.30,West,274,6.0,10.0,32,0.00,FEW,SCT,0.00,258.0,WeatherDisplay:10.37,2013-02-01 21:40:00,
2013-02-01 16:45:00,36.1,8.3,30.30,WNW,283,6.0,12.0,31,0.00,FEW,SCT,0.00,239.0,WeatherDisplay:10.37,2013-02-01 21:45:00,
2013-02-01 16:50:00,35.9,8.2,30.30,WNW,298,7.0,13.0,31,0.00,FEW,SCT,0.00,220.0,WeatherDisplay:10.37,2013-02-01 21:50:00,
2013-02-01 16:55:00,35.7,7.3,30.30,NW,308,6.0,9.0,30,0.00,FEW,SCT,0.00,206.0,WeatherDisplay:10.37,2013-02-01 21:55:00,
2013-02-01 17:00:00,35.6,7.9,30.30,WNW,301,6.0,10.0,31,0.00,SCT,SCT,0.00,190.0,WeatherDisplay:10.37,2013-02-01 22:00:00,
2013-02-01 17:05:00,35.5,7.8,30.30,WNW,289,2.0,10.0,31,0.00,SCT,SCT,0.00,172.0,WeatherDisplay:10.37,2013-02-01 22:05:00,
2013-02-01 17:10:00,35.3,8.3,30.31,WNW,292,5.0,8.0,32,0.00,SCT,SCT,0.00,155.0,WeatherDisplay:10.37,2013-02-01 22:10:00,
2013-02-01 17:15:00,35.2,8.2,30.31,WNW,293,2.0,9.0,32,0.00,SCT,SCT,0.00,137.0,WeatherDisplay:10.37,2013-02-01 22:15:00,
2013-02-01 17:20:00,35.0,8.1,30.31,WNW,287,3.0,7.0,32,0.00,SCT,SCT,0.00,114.0,WeatherDisplay:10.37,2013-02-01 22:20:00,
2013-02-01 17:25:00,34.8,7.9,30.31,WNW,287,3.0,9.0,32,0.00,SCT,SCT,0.00,91.0,WeatherDisplay:10.37,2013-02-01 22:25:00,
2013-02-01 17:30:00,34.4,7.5,30.31,NW,304,3.0,9.0,32,0.00,BKN,SCT,0.00,76.0,WeatherDisplay:10.37,2013-02-01 22:30:00,
2013-02-01 17:35:00,34.3,7.4,30.31,NW,305,3.0,10.0,32,0.00,BKN,SCT,0.00,14.0,WeatherDisplay:10.37,2013-02-01 22:35:00,
2013-02-01 17:40:00,33.9,7.7,30.31,WNW,296,5.0,9.0,33,0.00,BKN,SCT,0.00,11.0,WeatherDisplay:10.37,2013-02-01 22:40:00,
2013-02-01 17:45:00,33.5,8.1,30.31,WNW,302,2.0,7.0,34,0.00,BKN,SCT,0.00,9.0,WeatherDisplay:10.37,2013-02-01 22:45:00,
2013-02-01 17:50:00,33.2,8.4,30.31,NW,311,3.0,6.0,35,0.00,BKN,SCT,0.00,5.0,WeatherDisplay:10.37,2013-02-01 22:50:00,
2013-02-01 17:55:00,32.7,8.1,30.31,NW,309,5.0,8.0,35,0.00,BKN,SCT,0.00,0.0,WeatherDisplay:10.37,2013-02-01 22:55:00,
2013-02-01 18:00:00,32.5,7.8,30.31,NW,307,1.0,8.0,35,0.00,BKN,SCT,0.00,0.0,WeatherDisplay:10.37,2013-02-01 23:00:00,
2013-02-01 18:05:00,32.2,7.6,30.32,NW,304,0.0,5.0,35,0.00,BKN,SCT,0.00,0.0,WeatherDisplay:10.37,2013-02-01 23:05:00,
2013-02-01 18:10:00,32.0,7.4,30.32,NW,305,2.0,5.0,35,0.00,BKN,SCT,0.00,0.0,WeatherDisplay:10.37,2013-02-01 23:10:00,
2013-02-01 18:15:00,31.8,7.8,30.32,NW,306,0.0,3.0,36,0.00,BKN,SCT,0.00,0.0,WeatherDisplay:10.37,2013-02-01 23:15:00,
2013-02-01 18:20:00,31.6,8.2,30.32,NW,306,0.0,2.0,37,0.00,BKN,SCT,0.00,0.0,WeatherDisplay:10.37,2013-02-01 23:20:00,
2013-02-01 18:25:00,31.4,7.4,30.32,NW,306,0.0,3.0,36,0.00,BKN,SCT,0.00,0.0,WeatherDisplay:10.37,2013-02-01 23:25:00,
2013-02-01 18:30:00,31.2,7.3,30.32,NW,306,1.0,5.0,36,0.00,BKN,SCT,0.00,0.0,WeatherDisplay:10.37,2013-02-01 23:30:00,
2013-02-01 18:35:00,31.0,7.7,30.33,NW,306,1.0,5.0,37,0.00,BKN,SCT,0.00,0.0,WeatherDisplay:10.37,2013-02-01 23:35:00,
2013-02-01 18:40:00,30.8,7.6,30.33,NW,306,0.0,5.0,37,0.00,BKN,SCT,0.00,0.0,WeatherDisplay:10.37,2013-02-01 23:40:00,
2013-02-01 18:45:00,30.6,8.0,30.33,NW,306,0.0,4.0,38,0.00,BKN,SCT,0.00,0.0,WeatherDisplay:10.37,2013-02-01 23:45:00,
2013-02-01 18:50:00,30.4,7.8,30.33,NW,306,1.0,4.0,38,0.00,BKN,SCT,0.00,0.0,WeatherDisplay:10.37,2013-02-01 23:50:00,
2013-02-01 19:00:00,30.1,8.7,30.33,NW,307,2.0,4.0,40,0.00,BKN,SCT,0.00,0.0,WeatherDisplay:10.37,2013-02-02 00:00:00,
2013-02-01 19:05:00,29.9,8.5,30.33,NW,310,2.0,7.0,40,0.00,BKN,SCT,0.00,0.0,WeatherDisplay:10.37,2013-02-02 00:05:00,
2013-02-01 19:10:00,29.8,8.4,30.33,NW,312,1.0,5.0,40,0.00,BKN,SCT,0.00,0.0,WeatherDisplay:10.37,2013-02-02 00:10:00,
2013-02-01 19:15:00,29.7,8.3,30.34,NW,313,1.0,4.0,40,0.00,BKN,SCT,0.00,0.0,WeatherDisplay:10.37,2013-02-02 00:15:00,
2013-02-01 19:20:00,29.6,8.7,30.34,NW,313,0.0,3.0,41,0.00,BKN,SCT,0.00,0.0,WeatherDisplay:10.37,2013-02-02 00:20:00,
2013-02-01 19:25:00,29.5,8.7,30.34,NW,313,0.0,2.0,41,0.00,BKN,SCT,0.00,0.0,WeatherDisplay:10.37,2013-02-02 00:25:00,
2013-02-01 19:30:00,29.4,8.6,30.34,NW,313,0.0,1.0,41,0.00,BKN,SCT,0.00,0.0,WeatherDisplay:10.37,2013-02-02 00:30:00,
2013-02-01 19:35:00,29.3,9.0,30.34,NW,313,0.0,1.0,42,0.00,BKN,SCT,0.00,0.0,WeatherDisplay:10.37,2013-02-02 00:35:00,
2013-02-01 19:40:00,29.2,9.4,30.34,NW,313,0.0,1.0,43,0.00,BKN,SCT,0.00,0.0,WeatherDisplay:10.37,2013-02-02 00:40:00,
2013-02-01 19:45:00,29.0,9.3,30.35,NW,313,0.0,1.0,43,0.00,BKN,SCT,0.00,0.0,WeatherDisplay:10.37,2013-02-02 00:45:00,
2013-02-01 19:50:00,28.8,10.1,30.35,NW,313,0.0,1.0,45,0.00,BKN,SCT,0.00,0.0,WeatherDisplay:10.37,2013-02-02 00:50:00,
2013-02-01 19:55:00,28.6,9.4,30.35,NW,313,0.0,2.0,44,0.00,BKN,SCT,0.00,0.0,WeatherDisplay:10.37,2013-02-02 00:55:00,
2013-02-01 20:00:00,28.4,9.2,30.36,NW,313,0.0,1.0,44,0.00,BKN,SCT,0.00,0.0,WeatherDisplay:10.37,2013-02-02 01:00:00,
2013-02-01 20:05:00,28.3,10.1,30.36,NW,313,0.0,1.0,46,0.00,BKN,SCT,0.00,0.0,WeatherDisplay:10.37,2013-02-02 01:05:00,
2013-02-01 20:10:00,27.9,10.2,30.36,NW,313,0.0,1.0,47,0.00,BKN,SCT,0.00,0.0,WeatherDisplay:10.37,2013-02-02 01:10:00,
2013-02-01 20:20:00,27.6,10.0,30.36,NW,313,0.0,2.0,47,0.00,BKN,SCT,0.00,0.0,WeatherDisplay:10.37,2013-02-02 01:20:00,
2013-02-01 20:25:00,27.4,9.8,30.37,NW,313,0.0,1.0,47,0.00,BKN,SCT,0.00,0.0,WeatherDisplay:10.37,2013-02-02 01:25:00,
2013-02-01 20:30:00,27.3,10.2,30.37,NW,313,0.0,3.0,48,0.00,BKN,SCT,0.00,0.0,WeatherDisplay:10.37,2013-02-02 01:30:00,
2013-02-01 20:35:00,27.2,10.1,30.37,NW,313,0.0,1.0,48,0.00,BKN,SCT,0.00,0.0,WeatherDisplay:10.37,2013-02-02 01:35:00,
2013-02-01 20:40:00,27.1,10.9,30.37,NW,313,0.0,1.0,50,0.00,BKN,SCT,0.00,0.0,WeatherDisplay:10.37,2013-02-02 01:40:00,
2013-02-01 20:45:00,26.9,10.7,30.37,NW,313,0.0,2.0,50,0.00,BKN,SCT,0.00,0.0,WeatherDisplay:10.37,2013-02-02 01:45:00,
2013-02-01 20:50:00,26.8,10.6,30.37,NW,313,0.0,2.0,50,0.00,BKN,SCT,0.00,0.0,WeatherDisplay:10.37,2013-02-02 01:50:00,
2013-02-01 20:55:00,26.7,10.5,30.37,NW,313,2.0,5.0,50,0.00,BKN,SCT,0.00,0.0,WeatherDisplay:10.37,2013-02-02 01:55:00,
2013-02-01 21:00:00,26.8,10.6,30.37,NW,313,0.0,4.0,50,0.00,BKN,SCT,0.00,0.0,WeatherDisplay:10.37,2013-02-02 02:00:00,
2013-02-01 21:05:00,26.8,10.6,30.37,NW,313,0.0,2.0,50,0.00,BKN,SCT,0.00,0.0,WeatherDisplay:10.37,2013-02-02 02:05:00,
2013-02-01 21:10:00,26.8,10.6,30.37,NW,313,0.0,3.0,50,0.00,BKN,SCT,0.00,0.0,WeatherDisplay:10.37,2013-02-02 02:10:00,
2013-02-01 21:15:00,26.8,10.2,30.37,NW,313,0.0,1.0,49,0.00,BKN,SCT,0.00,0.0,WeatherDisplay:10.37,2013-02-02 02:15:00,
2013-02-01 21:20:00,26.7,10.5,30.37,NW,313,1.0,3.0,50,0.00,BKN,SCT,0.00,0.0,WeatherDisplay:10.37,2013-02-02 02:20:00,
2013-02-01 21:25:00,26.6,10.9,30.36,NW,313,1.0,4.0,51,0.00,BKN,SCT,0.00,0.0,WeatherDisplay:10.37,2013-02-02 02:25:00,
2013-02-01 21:30:00,26.5,10.4,30.36,NW,313,1.0,5.0,50,0.00,BKN,SCT,0.00,0.0,WeatherDisplay:10.37,2013-02-02 02:30:00,
2013-02-01 21:35:00,26.5,10.4,30.36,NW,313,1.0,4.0,50,0.00,BKN,SCT,0.00,0.0,WeatherDisplay:10.37,2013-02-02 02:35:00,
2013-02-01 21:45:00,26.5,10.8,30.37,NW,313,1.0,3.0,51,0.00,BKN,SCT,0.00,0.0,WeatherDisplay:10.37,2013-02-02 02:45:00,
2013-02-01 21:50:00,26.5,10.7,30.37,NW,313,1.0,5.0,51,0.00,BKN,SCT,0.00,0.0,WeatherDisplay:10.37,2013-02-02 02:50:00,
2013-02-01 21:55:00,26.4,10.7,30.36,NW,314,0.0,2.0,51,0.00,BKN,SCT,0.00,0.0,WeatherDisplay:10.37,2013-02-02 02:55:00,
2013-02-01 22:00:00,26.4,10.7,30.36,NW,315,1.0,3.0,51,0.00,BKN,SCT,0.00,0.0,WeatherDisplay:10.37,2013-02-02 03:00:00,
2013-02-01 22:05:00,26.3,11.1,30.37,NW,315,1.0,4.0,52,0.00,BKN,SCT,0.00,0.0,WeatherDisplay:10.37,2013-02-02 03:05:00,
2013-02-01 22:10:00,26.3,10.6,30.36,NW,321,0.0,8.0,51,0.00,BKN,SCT,0.00,0.0,WeatherDisplay:10.37,2013-02-02 03:10:00,
2013-02-01 22:15:00,26.3,10.6,30.36,NNW,327,1.0,2.0,51,0.00,BKN,SCT,0.00,0.0,WeatherDisplay:10.37,2013-02-02 03:15:00,
2013-02-01 22:20:00,26.2,10.9,30.36,NNW,327,1.0,2.0,52,0.00,BKN,SCT,0.00,0.0,WeatherDisplay:10.37,2013-02-02 03:20:00,
2013-02-01 22:30:00,25.8,11.0,30.37,NNW,327,0.0,1.0,53,0.00,BKN,SCT,0.00,0.0,WeatherDisplay:10.37,2013-02-02 03:30:00,
2013-02-01 22:35:00,25.7,10.9,30.37,NNW,327,0.0,0.0,53,0.00,BKN,SCT,0.00,0.0,WeatherDisplay:10.37,2013-02-02 03:35:00,
2013-02-01 22:40:00,25.6,11.2,30.37,NNW,327,0.0,1.0,54,0.00,BKN,SCT,0.00,0.0,WeatherDisplay:10.37,2013-02-02 03:40:00,
2013-02-01 22:45:00,25.4,11.0,30.37,NNW,327,0.0,0.0,54,0.00,BKN,SCT,0.00,0.0,WeatherDisplay:10.37,2013-02-02 03:45:00,
2013-02-01 22:50:00,25.1,11.6,30.37,NNW,327,0.0,1.0,56,0.00,BKN,SCT,0.00,0.0,WeatherDisplay:10.37,2013-02-02 03:50:00,
2013-02-01 23:00:00,24.4,12.5,30.37,NNW,327,0.0,0.0,60,0.00,BKN,SCT,0.00,0.0,WeatherDisplay:10.37,2013-02-02 04:00:00,
2013-02-01 23:05:00,24.2,12.3,30.37,NNW,327,0.0,0.0,60,0.00,BKN,SCT,0.00,0.0,WeatherDisplay:10.37,2013-02-02 04:05:00,
2013-02-01 23:10:00,24.0,12.1,30.37,NNW,327,0.0,1.0,60,0.00,BKN,SCT,0.00,0.0,WeatherDisplay:10.37,2013-02-02 04:10:00,
2013-02-01 23:20:00,23.4,13.0,30.38,NNW,327,0.0,1.0,64,0.00,BKN,SCT,0.00,0.0,WeatherDisplay:10.37,2013-02-02 04:20:00,
2013-02-01 23:25:00,22.9,12.9,30.37,NNW,327,0.0,1.0,65,0.00,BKN,SCT,0.00,0.0,WeatherDisplay:10.37,2013-02-02 04:25:00,
2013-02-01 23:30:00,22.7,12.3,30.37,NNW,327,0.0,0.0,64,0.00,BKN,SCT,0.00,0.0,WeatherDisplay:10.37,2013-02-02 04:30:00,
2013-02-01 23:40:00,22.5,12.5,30.37,NNW,327,0.0,2.0,65,0.00,BKN,SCT,0.00,0.0,WeatherDisplay:10.37,2013-02-02 04:40:00,
2013-02-01 23:45:00,22.3,12.7,30.38,NNW,327,0.0,1.0,66,0.00,BKN,SCT,0.00,0.0,WeatherDisplay:10.37,2013-02-02 04:45:00,
2013-02-01 23:50:00,22.2,12.6,30.38,NNW,327,0.0,0.0,66,0.00,BKN,SCT,0.00,0.0,WeatherDisplay:10.37,2013-02-02 04:50:00,
2013-02-01 23:55:00,22.1,12.5,30.38,NNW,327,0.0,0.0,66,0.00,BKN,SCT,0.00,0.0,WeatherDisplay:10.37,2013-02-02 04:55:00,